CTLRVL-WX Weather Reports


time (UTC)temp
C
wind
direction
speed
KPH
gust
KPH
rain 1hr
cm
rain 24hr
cm
rain mn
cm
humidity
%
barometer
mb
20260901161601 30 246 12.9 0.0 0.00 0.00 0.00 74 989.6
20260901154601 28 243 12.9 0.0 0.00 0.00 0.00 84 989.3
20260901153057 28 240 11.3 0.0 0.00 0.00 0.00 84 989.3
20260901151558 27 245 8.0 0.0 0.00 0.00 0.00 84 989.3
20260901150057 27 250 8.0 0.0 0.00 0.00 0.00 84 989.3
20260901144557 26 247 8.0 0.0 0.00 0.00 0.00 89 988.5
20260901143102 26 237 6.4 0.0 0.00 0.00 0.00 85 989.7
20260901141602 26 241 6.4 0.0 0.00 0.00 0.00 82 990.3
20260901134603 24 224 9.7 0.0 0.00 0.00 0.00 85 989.5
20260901133102 24 215 9.7 0.0 0.00 0.00 0.00 85 989.5
20260901131601 23 203 11.3 0.0 0.00 0.00 0.00 85 989.5
20260901130106 23 195 9.7 0.0 0.00 0.00 0.00 85 989.5
20260901124623 23 195 6.4 0.0 0.00 0.00 0.00 91 989.0
20260901123102 22 184 4.8 0.0 0.00 0.00 0.00 89 988.8
20260901121601 21 180 4.8 0.0 0.00 0.00 0.00 89 988.8
20260901120109 21 180 6.4 0.0 0.00 0.00 0.00 89 988.8
20260901114602 20 180 6.4 0.0 0.00 0.00 0.00 89 988.0
20260901113107 20 186 6.4 0.0 0.00 0.00 0.00 88 988.4
20260901111602 20 186 6.4 0.0 0.00 0.00 0.00 88 988.4
20260901110106 20 183 6.4 0.0 0.00 0.00 0.00 88 988.4
20260901104605 20 188 6.4 0.0 0.00 0.00 0.00 87 988.8
20260901103106 20 188 6.4 0.0 0.00 0.00 0.00 87 988.8
20260901101609 21 201 8.0 0.0 0.00 0.00 0.00 87 988.8
20260901100109 21 196 6.4 0.0 0.00 0.00 0.00 87 988.8
20260901094602 21 208 8.0 0.0 0.00 0.00 0.00 87 987.8
20260901093107 21 204 8.0 0.0 0.00 0.00 0.00 87 988.1
20260901091608 21 210 8.0 0.0 0.00 0.00 0.00 87 988.1
20260901090107 21 213 8.0 0.0 0.00 0.00 0.00 87 988.1
20260901084601 21 215 9.7 0.0 0.00 0.00 0.00 88 987.7
20260901083106 21 212 11.3 0.0 0.00 0.00 0.00 88 987.3
20260901081607 21 220 9.7 0.0 0.00 0.00 0.00 88 987.3
20260901074607 21 214 9.7 0.0 0.00 0.00 0.00 90 987.4
20260901073105 21 214 8.0 0.0 0.00 0.00 0.00 90 987.4
20260901071601 22 219 9.7 0.0 0.00 0.00 0.00 90 987.4
20260901064608 22 225 9.7 0.0 0.00 0.00 0.00 89 987.7
20260901063055 22 225 9.7 0.0 0.00 0.00 0.00 89 987.7
20260901061603 22 223 11.3 0.0 0.00 0.00 0.00 89 987.7
20260901060106 22 214 11.3 0.0 0.00 0.00 0.00 89 987.7
20260901054606 22 211 11.3 0.0 0.00 0.00 0.00 87 987.9
20260901053107 21 206 8.0 0.0 0.00 0.00 0.00 88 987.6
20260901051601 21 211 8.0 0.0 0.00 0.00 0.00 88 987.6
20260901050112 22 221 8.0 0.0 0.00 0.00 0.00 88 987.6
20260901044606 22 213 8.0 0.0 0.00 0.00 0.00 84 987.9
20260901043101 22 215 6.4 0.0 0.00 0.00 0.00 86 987.7
20260901041605 22 221 6.4 0.0 0.00 0.00 0.00 86 987.7
20260901040110 22 228 8.0 0.0 0.00 0.00 0.00 86 987.7
20260901034605 22 223 8.0 0.0 0.00 0.00 0.00 83 987.7
20260901033105 22 237 4.8 0.0 0.00 0.00 0.00 87 987.9
20260901031605 22 225 6.4 0.0 0.00 0.00 0.00 87 987.8
20260901030105 22 210 8.0 0.0 0.00 0.00 0.00 87 987.8
20260901024605 22 216 8.0 0.0 0.00 0.00 0.00 83 988.9
20260901023108 22 223 6.4 0.0 0.00 0.00 0.00 83 988.3
20260901021604 23 212 14.5 0.0 0.00 0.00 0.00 83 988.3
20260901020110 23 216 12.9 0.0 0.00 0.00 0.00 83 988.3
20260901014604 23 207 11.3 0.0 0.00 0.00 0.00 87 988.4
20260901013102 23 213 9.7 0.0 0.00 0.00 0.00 87 988.4
20260901011604 22 215 8.0 0.0 0.00 0.00 0.00 87 988.4
20260901010106 22 209 6.4 0.0 0.00 0.00 0.00 87 988.4
20260901004604 23 220 8.0 0.0 0.00 0.00 0.00 82 988.4
20260901003103 23 232 8.0 0.0 0.00 0.00 0.00 82 987.9
20260901001603 24 219 9.7 0.0 0.00 0.00 0.00 82 987.9
20260831234605 25 223 8.0 0.0 0.00 0.03 0.03 74 988.1
20260831233105 25 214 8.0 0.0 0.00 0.03 0.03 68 987.8
20260831231605 26 230 9.7 0.0 0.00 0.03 0.03 68 987.8
20260831230107 27 222 9.7 0.0 0.00 0.03 0.03 68 987.8
20260831224605 27 217 11.3 0.0 0.00 0.03 0.03 64 988.2
20260831223106 28 215 17.7 0.0 0.00 0.03 0.03 59 988.6
20260831221602 28 215 19.3 0.0 0.00 0.03 0.03 59 988.6
20260831220105 29 212 20.9 0.0 0.00 0.03 0.03 59 988.6
20260831214604 29 207 20.9 0.0 0.00 0.03 0.03 61 989.1
20260831213102 28 203 19.3 0.0 0.00 0.03 0.03 57 988.6
20260831211604 30 206 20.9 0.0 0.00 0.03 0.03 57 988.7
20260831210105 30 203 20.9 0.0 0.00 0.03 0.03 57 988.7
20260831204602 30 202 19.3 0.0 0.00 0.03 0.03 65 989.7
20260831203102 29 202 19.3 0.0 0.00 0.03 0.03 75 989.2
20260831201604 27 194 17.7 0.0 0.00 0.03 0.03 75 989.1
20260831200105 26 192 19.3 0.0 0.00 0.03 0.03 80 989.5
20260831194604 26 199 19.3 0.0 0.03 0.03 0.03 72 990.2
20260831193104 26 207 19.3 0.0 0.03 0.03 0.03 72 990.2
20260831191604 25 240 6.4 0.0 0.00 0.03 0.03 72 990.2
20260831190106 26 209 11.3 0.0 0.00 0.03 0.03 65 989.6
20260831184602 27 198 17.7 0.0 0.00 0.00 0.00 60 989.9
20260831183103 30 189 19.3 0.0 0.00 0.00 0.00 60 989.9
20260831181603 29 184 19.3 0.0 0.00 0.00 0.00 60 989.9
20260831180104 28 190 17.7 0.0 0.00 0.00 0.00 60 989.9
20260831174603 28 199 19.3 0.0 0.00 0.00 0.00 62 989.5
20260831173103 28 200 19.3 0.0 0.00 0.00 0.00 62 989.5
20260831171603 28 206 19.3 0.0 0.00 0.00 0.00 62 989.5
20260831170103 27 201 17.7 0.0 0.00 0.00 0.00 62 989.5
20260831164603 27 198 19.3 0.0 0.00 0.00 0.00 70 991.3
20260831163304 -17 0 0.0 0.0 0.00 0.00 0.00 100